Aeroporto :
LOGIN :

Iscrizione | Disclaimer

   EN    FR    IT 

 










Sommario :    VFR   VFR Marginale   IFR   IFR Intensivo   IFR Molto Intensivo
Visibilità : 
Base nubi : 
>= 8 km
>= 3000ft
5 / 8 km
1000 / 3000 ft
1500m / 5 km
500 / 1000 ft
800 / 1500m
200 / 500 ft
< 800m
< 200 ft
Simboli :   Temporali  Nebbia  Neve Forte  Precipitazioni Forti  Vento > 20 kt
SIGMETs :   Varie  Temporali  Ghiacco  Turbolenza  Onda orograficha  Ceneri Vulcaniche






- Altitudine del aeroporto : 290 ft
- Codice IATA : LAI


LFRO - Lannion

ULTIMO METAR :
  • 211530Z AUTO 15008KT 8000 RA FEW016/// OVC042/// ///CB 08/06 Q0995

METARs OBSOLETI :
  • 211500Z AUTO 15008KT 9999 BKN022/// BKN031/// BKN038/// ///CB 09/07 Q0996
  • 211430Z AUTO 14009KT 120V180 9999 -RA SCT042/// BKN054/// BKN130/// ///CB 10/08 Q0995
  • 211400Z AUTO 15007KT 9999 FEW014 SCT054 BKN110 10/08 Q0996
  • 211330Z AUTO 15007KT 9999 FEW016 SCT023 BKN230 10/08 Q0996
  • 211300Z AUTO 14006KT 9999 FEW014 BKN210 11/08 Q0996

Previsioni scadute.



MetMap, La meteo Aeronautica in un colpo d'occhio ! - Copyright ORBIFLY Dicembre 2007 - Disclaimer

ORBIFLY MET'MAP TEAM :

Programmazione e sviluppo : Alexandra Zaïnal
Concezione e sviluppo : Baudouin d'Aumeries
Co-Programmazione e sviluppo : Marc-Olivier Méhu
Supporto tecnico e logistico : Manuel Goepfert
Aiuto per la traduzione : Arnaldo La Scala

Contatto : metmap@orbifly.com




FONTI E CREDITI :

   NOAA